Weather History for KP58 - February, 2013

Change the Weather History Date:

Tuesday, February 12, 2013

  Actual Average Record
Temperature  
Mean Temperature 30 °F -  
Max Temperature 33 °F 29 °F 39 °F (1998)
Min Temperature 27 °F 18 °F 1 °F (2014)
Degree Days  
Heating Degree Days 34    
Moisture  
Dew Point 21 °F    
Average Humidity 68    
Maximum Humidity 82    
Minimum Humidity 61    
Precipitation  
Precipitation 0.00 in - - ()
Sea Level Pressure  
Sea Level Pressure 29.91 in    
Wind  
Wind Speed 9 mph (West)    
Max Wind Speed 12 mph    
Max Gust Speed 23 mph    
Averages and records for this station are not official NWS values.
T = Trace of Precipitation, MM = Missing Value Source: NWS Daily Summary

Daily Weather History Graph

Daily Weather History Graph

Search for Another Location

Airport or City:

Trip Planner

Search our weather history database for the weather conditions in past years. The results will help you decide how hot, cold, wet, or windy it might be!

Date:

Astronomy

Feb. 12, 2013 Rise Set
Actual Time 7:34 AM EST 5:57 PM EST
Civil Twilight 7:04 AM EST 6:26 PM EST
Nautical Twilight 6:30 AM EST 7:00 PM EST
Astronomical Twilight 5:57 AM EST 7:34 PM EST
Moon 8:23 AM EST (2/12) 9:05 PM EST (2/12)
Length of Visible Light 11h 22m
Length of Day
10h 22m
Waxing Crescent, 7% of the Moon is Illuminated
Feb 12
Waxing Crescent
Feb 17
First Quarter
Feb 25
Full
Mar 4
Last Quarter
Mar 11
New

Hourly Weather History & Observations

Time (EST) Temp. Windchill Dew Point Humidity Pressure Visibility Wind Dir Wind Speed Gust Speed Precip Events Conditions
12:51 AM 33.1 °F 26.1 °F 28.0 °F 82% 29.75 in - West 8.1 mph 16.1 mph N/A   Unknown
1:51 AM 33.1 °F 26.1 °F 26.1 °F 75% 29.79 in - WNW 8.1 mph - N/A   Unknown
2:51 AM 32.0 °F 23.6 °F 23.0 °F 69% 29.81 in - WNW 10.4 mph 23.0 mph N/A   Unknown
3:51 AM 32.0 °F 24.8 °F 21.9 °F 66% 29.84 in - WNW 8.1 mph 20.7 mph N/A   Unknown
4:51 AM 30.9 °F 21.7 °F 19.9 °F 64% 29.87 in - WNW 11.5 mph 19.6 mph N/A   Unknown
5:51 AM 30.0 °F 21.1 °F 18.0 °F 61% 29.89 in - WNW 10.4 mph 16.1 mph N/A   Unknown
6:51 AM 28.9 °F 20.4 °F 19.0 °F 67% 29.92 in - West 9.2 mph 19.6 mph N/A   Unknown
7:51 AM 28.9 °F 20.4 °F 19.0 °F 67% 29.94 in - West 9.2 mph - N/A   Unknown
8:51 AM 28.9 °F 21.1 °F 21.9 °F 75% 29.95 in - West 8.1 mph 16.1 mph N/A   Unknown
9:51 AM 28.9 °F 19.2 °F 21.0 °F 72% 29.96 in - West 11.5 mph 18.4 mph N/A   Unknown
10:51 AM 30.0 °F 24.1 °F 21.9 °F 72% 29.98 in - Variable 5.8 mph - N/A   Unknown
11:51 AM 32.0 °F 24.8 °F 19.9 °F 61% 29.96 in - West 8.1 mph 20.7 mph N/A   Unknown
12:51 PM 30.9 °F 23.5 °F 19.9 °F 64% 29.95 in - West 8.1 mph 16.1 mph N/A   Unknown
1:51 PM 30.0 °F 21.1 °F 19.9 °F 66% 29.94 in - West 10.4 mph 19.6 mph N/A   Unknown
2:51 PM 30.0 °F 21.1 °F 21.0 °F 69% 29.93 in - West 10.4 mph 19.6 mph N/A   Unknown
3:51 PM 30.0 °F 22.4 °F 21.0 °F 69% 29.91 in - West 8.1 mph 17.3 mph N/A   Unknown
4:51 PM 30.0 °F 24.1 °F 21.0 °F 69% 29.92 in - Variable 5.8 mph - N/A   Unknown
5:51 PM 30.0 °F 24.1 °F 21.0 °F 69% 29.93 in - WSW 5.8 mph - N/A   Unknown
6:51 PM 30.0 °F 22.4 °F 19.9 °F 66% 29.94 in - WSW 8.1 mph - N/A   Unknown
7:51 PM 28.9 °F 21.1 °F 19.9 °F 69% 29.94 in - WSW 8.1 mph - N/A   Unknown
8:51 PM 28.9 °F 22.8 °F 19.9 °F 69% 29.92 in - West 5.8 mph - N/A   Unknown
9:51 PM 28.0 °F 20.8 °F 19.0 °F 69% 29.92 in - WSW 6.9 mph 16.1 mph N/A   Unknown
10:51 PM 28.0 °F 20.0 °F 18.0 °F 66% 29.91 in - West 8.1 mph - N/A   Unknown
11:51 PM 27.0 °F 18.7 °F 16.0 °F 63% 29.90 in - WSW 8.1 mph - N/A   Unknown